Location: Cahas Mountain Overlook
(37.0833°N, 80.1000°W)
Time: 18:08:10
(UTC-04:00)

SR - Pass Details

Date: 15 February 2026
Orbit: 572 x 849 km, 66.7° (Epoch: 12 March)

Event Time Altitude Azimuth Distance (km) Brightness Sun altitude
Rises 03:48:37 0° 156° (SSE) 2,760 - -40.3°
Reaches altitude 10° 03:52:35 10° 118° (ESE) 1,872 - -39.6°
Maximum altitude 03:53:33 11° 104° (ESE) 1,832 - -39.4°
Drops below altitude 10° 03:54:32 10° 91° (E) 1,884 - -39.2°
Exits shadow 03:54:57 - 85° (E) 1,933 ? -39.1°
Sets 03:58:34 0° 53° (NE) 2,826 ? -38.4°
